Hourly Data Report for August 29, 2002

SHERBROOKE A
QUEBEC

45°26'00.000" N
71°41'00.000" W
241.40 m
7028124
71610
YSC

Download Data

Hourly Data (August 2002)
Hourly Data Report for August 29, 2002
TIME
LST
Temp Definition
°C
Dew Point Definition
°C
Rel Hum Definition
%
Precip. Amount Definition
mm

Wind Dir Definition
10's deg

Wind Spd Definition
km/h
Visibility Definition
km
Stn Press Definition
kPa
Hmdx Definition


Wind Chill Definition


Weather Definition


00:00 10.3 9.0 92   9 4 15.0 99.85      
01:00 9.3 8.5 95     0 15.0 99.84      
02:00 9.2 8.5 95   10 4 15.0 99.81      
03:00 8.2 7.9 98   1 6 15.0 99.82      
04:00 8.6 8.0 96   11 7 15.0 99.80      
05:00 8.4 7.8 96   6 4 15.0 99.78      
06:00 9.4 8.9 97   12 4 15.0 99.79      
07:00 11.6 10.7 94     0 24.1 99.83     Mostly Cloudy
08:00 15.1 11.7 80     0 24.1 99.82     Mostly Cloudy
09:00 18.1 11.7 66   20 6 24.1 99.78     Mostly Cloudy
10:00 18.8 11.3 62     0 24.1 99.73     Mostly Cloudy
11:00 19.7 10.8 56   23 7 24.1 99.66     Cloudy
12:00 19.9 11.5 58   25 6 24.1 99.63     Mostly Cloudy
13:00 19.8 11.4 58   21 7 24.1 99.58     Cloudy
14:00 19.5 12.5 64   22 7 24.1 99.54     Cloudy
15:00 18.5 11.8 65   23 6 24.1 99.52     Cloudy
16:00 17.6 11.4 67   23 6 24.1 99.52     Cloudy
17:00 16.8 11.7 72   24 4 15.0 99.50      
18:00 15.7 11.7 77   23 6 15.0 99.49      
19:00 15.2 11.3 78   21 7 15.0 99.47      
20:00 14.6 11.4 81   20 6 15.0 99.47     Rain
21:00 14.0 11.7 86   19 6 15.0 99.44      
22:00 13.5 11.8 89     0 15.0 99.42      
23:00 12.8 11.7 93     0 15.0 99.39      

Notes on Data Quality.

Legend

  • E = Estimated
  • M = Missing
  • NA = Not Available*
  • [empty] = Indicates an unobserved value
Date modified: